Time,TemperatureF,DewpointF,PressureIn,WindDirection,WindDirectionDegrees,WindSpeedMPH,WindSpeedGustMPH,Humidity,HourlyPrecipIn,Conditions,Clouds,dailyrainin,SoftwareType,DateUTC
2013-05-19 00:03:00,51.0,49.0,30.27,WSW,257,0.0,2.0,94,0.00,,,0.00,,2013-05-19 04:03:00,
2013-05-19 00:12:00,51.0,49.0,30.27,WSW,257,0.0,2.0,94,0.00,,,0.00,,2013-05-19 04:12:00,
2013-05-19 00:23:00,51.0,49.0,30.27,NW,311,0.0,3.0,94,0.00,,,0.00,,2013-05-19 04:23:00,
2013-05-19 00:33:00,51.0,49.0,30.27,NW,326,3.0,5.0,94,0.00,,,0.00,,2013-05-19 04:33:00,
2013-05-19 00:42:00,51.0,49.0,30.27,NW,326,3.0,5.0,94,0.00,,,0.00,,2013-05-19 04:42:00,
2013-05-19 00:53:00,51.0,49.0,30.27,North,5,1.0,4.0,94,0.00,,,0.00,,2013-05-19 04:53:00,
2013-05-19 01:02:00,51.0,49.0,30.27,NW,310,1.0,3.0,94,0.00,,,0.00,,2013-05-19 05:02:00,
2013-05-19 01:12:00,51.0,49.0,30.27,NW,310,1.0,3.0,94,0.00,,,0.00,,2013-05-19 05:12:00,
2013-05-19 01:22:00,51.0,49.0,30.27,NW,305,0.0,1.0,94,0.00,,,0.00,,2013-05-19 05:22:00,
2013-05-19 01:32:00,51.0,49.0,30.27,North,358,1.0,3.0,94,0.00,,,0.00,,2013-05-19 05:32:00,
2013-05-19 01:42:00,51.0,49.0,30.27,NW,316,1.0,4.0,94,0.00,,,0.00,,2013-05-19 05:42:00,
2013-05-19 01:52:00,51.0,49.0,30.27,NW,316,1.0,4.0,94,0.00,,,0.00,,2013-05-19 05:52:00,
2013-05-19 02:02:00,51.0,49.0,30.27,WNW,284,1.0,3.0,94,0.00,,,0.00,,2013-05-19 06:02:00,
2013-05-19 02:12:00,51.0,49.0,30.27,WNW,284,1.0,3.0,94,0.00,,,0.00,,2013-05-19 06:12:00,
2013-05-19 02:21:00,51.0,49.0,30.27,NW,316,1.0,2.0,94,0.00,,,0.00,,2013-05-19 06:21:00,
2013-05-19 02:32:00,51.0,49.0,30.28,NW,309,0.0,5.0,94,0.00,,,0.00,,2013-05-19 06:32:00,
2013-05-19 02:42:00,51.0,49.0,30.28,NW,309,0.0,5.0,94,0.00,,,0.00,,2013-05-19 06:42:00,
2013-05-19 02:52:00,51.0,49.0,30.27,WSW,238,0.0,0.0,94,0.00,,,0.00,,2013-05-19 06:52:00,
2013-05-19 03:01:00,51.0,49.0,30.27,SW,217,0.0,2.0,94,0.00,,,0.00,,2013-05-19 07:01:00,
2013-05-19 03:11:00,51.0,49.0,30.27,SW,217,0.0,2.0,94,0.00,,,0.00,,2013-05-19 07:11:00,
2013-05-19 03:22:00,51.0,50.0,30.28,WSW,250,0.0,1.0,95,0.00,,,0.00,,2013-05-19 07:22:00,
2013-05-19 03:32:00,50.0,49.0,30.28,NW,313,1.0,2.0,95,0.00,,,0.00,,2013-05-19 07:32:00,
2013-05-19 03:42:00,50.0,49.0,30.28,NW,313,1.0,2.0,95,0.00,,,0.00,,2013-05-19 07:42:00,
2013-05-19 03:52:00,50.0,49.0,30.28,NW,309,1.0,2.0,95,0.00,,,0.00,,2013-05-19 07:52:00,
2013-05-19 04:02:00,50.0,49.0,30.29,WNW,291,1.0,3.0,95,0.00,,,0.00,,2013-05-19 08:02:00,
2013-05-19 04:12:00,50.0,49.0,30.29,WNW,291,1.0,3.0,95,0.00,,,0.00,,2013-05-19 08:12:00,
2013-05-19 04:22:00,50.0,49.0,30.29,NW,312,0.0,1.0,95,0.00,,,0.00,,2013-05-19 08:22:00,
2013-05-19 04:32:00,51.0,50.0,30.29,NW,309,0.0,1.0,95,0.00,,,0.00,,2013-05-19 08:32:00,
2013-05-19 04:42:00,51.0,50.0,30.29,NW,309,0.0,1.0,95,0.00,,,0.00,,2013-05-19 08:42:00,
2013-05-19 04:52:00,51.0,49.0,30.29,NW,315,1.0,3.0,94,0.00,,,0.00,,2013-05-19 08:52:00,
2013-05-19 05:02:00,51.0,49.0,30.29,North,6,1.0,1.0,94,0.00,,,0.00,,2013-05-19 09:02:00,
2013-05-19 05:12:00,51.0,49.0,30.29,North,6,1.0,1.0,94,0.00,,,0.00,,2013-05-19 09:12:00,
2013-05-19 05:21:00,51.0,49.0,30.30,NNW,338,0.0,1.0,94,0.00,,,0.00,,2013-05-19 09:21:00,
2013-05-19 05:32:00,51.0,49.0,30.30,West,265,0.0,1.0,94,0.00,,,0.00,,2013-05-19 09:32:00,
2013-05-19 05:43:00,51.0,49.0,30.30,West,265,0.0,1.0,94,0.00,,,0.00,,2013-05-19 09:43:00,
2013-05-19 05:53:00,51.0,49.0,30.31,SW,226,0.0,0.0,93,0.00,,,0.00,,2013-05-19 09:53:00,
2013-05-19 06:03:00,51.0,49.0,30.32,SW,233,0.0,0.0,93,0.00,,,0.00,,2013-05-19 10:03:00,
2013-05-19 06:12:00,51.0,49.0,30.32,SW,232,0.0,0.0,93,0.00,,,0.00,,2013-05-19 10:12:00,
2013-05-19 06:23:00,51.0,49.0,30.32,SW,232,0.0,0.0,93,0.00,,,0.00,,2013-05-19 10:23:00,
2013-05-19 06:33:00,51.0,49.0,30.32,SW,232,0.0,0.0,93,0.00,,,0.00,,2013-05-19 10:33:00,
2013-05-19 06:42:00,51.0,49.0,30.32,SW,232,0.0,0.0,93,0.00,,,0.00,,2013-05-19 10:42:00,
2013-05-19 06:53:00,51.0,49.0,30.32,SW,232,0.0,0.0,92,0.00,,,0.00,,2013-05-19 10:53:00,
2013-05-19 07:02:00,52.0,49.0,30.33,SW,232,0.0,0.0,91,0.00,,,0.00,,2013-05-19 11:02:00,
2013-05-19 07:12:00,52.0,49.0,30.33,SW,232,0.0,0.0,91,0.00,,,0.00,,2013-05-19 11:12:00,
2013-05-19 07:21:00,52.0,49.0,30.33,SW,232,0.0,0.0,91,0.00,,,0.00,,2013-05-19 11:21:00,
2013-05-19 07:32:00,52.0,49.0,30.33,WSW,237,0.0,0.0,90,0.00,,,0.00,,2013-05-19 11:32:00,
2013-05-19 07:42:00,52.0,49.0,30.33,WSW,237,0.0,0.0,90,0.00,,,0.00,,2013-05-19 11:42:00,
2013-05-19 07:52:00,53.0,50.0,30.34,WSW,241,2.0,3.0,88,0.00,,,0.00,,2013-05-19 11:52:00,
2013-05-19 08:01:00,53.0,50.0,30.34,SW,235,1.0,2.0,88,0.00,,,0.00,,2013-05-19 12:01:00,
2013-05-19 08:12:00,53.0,50.0,30.34,SW,235,1.0,2.0,88,0.00,,,0.00,,2013-05-19 12:12:00,
2013-05-19 08:22:00,53.0,49.0,30.34,WSW,250,0.0,2.0,87,0.00,,,0.00,,2013-05-19 12:22:00,
2013-05-19 08:32:00,54.0,50.0,30.33,NW,317,0.0,3.0,86,0.00,,,0.00,,2013-05-19 12:32:00,
2013-05-19 08:42:00,54.0,50.0,30.33,NW,317,0.0,3.0,86,0.00,,,0.00,,2013-05-19 12:42:00,
2013-05-19 08:52:00,54.0,50.0,30.34,NW,316,2.0,4.0,85,0.00,,,0.00,,2013-05-19 12:52:00,
2013-05-19 09:01:00,55.0,50.0,30.34,North,354,1.0,3.0,84,0.00,,,0.00,,2013-05-19 13:01:00,
2013-05-19 09:11:00,55.0,50.0,30.34,North,354,1.0,3.0,84,0.00,,,0.00,,2013-05-19 13:11:00,
2013-05-19 09:21:00,56.0,51.0,30.34,WSW,255,3.0,5.0,82,0.00,,,0.00,,2013-05-19 13:21:00,
2013-05-19 09:32:00,58.0,52.0,30.34,NW,317,1.0,3.0,79,0.00,,,0.00,,2013-05-19 13:32:00,
2013-05-19 09:42:00,58.0,52.0,30.34,NW,317,1.0,3.0,79,0.00,,,0.00,,2013-05-19 13:42:00,
2013-05-19 09:52:00,59.0,52.0,30.35,NW,311,1.0,2.0,79,0.00,,,0.00,,2013-05-19 13:52:00,
2013-05-19 10:02:00,59.0,52.0,30.34,NW,314,2.0,2.0,77,0.00,,,0.00,,2013-05-19 14:02:00,
2013-05-19 10:11:00,59.0,52.0,30.34,NW,314,2.0,2.0,77,0.00,,,0.00,,2013-05-19 14:11:00,
2013-05-19 10:21:00,59.0,52.0,30.34,NNW,345,1.0,3.0,78,0.00,,,0.00,,2013-05-19 14:21:00,
2013-05-19 10:32:00,59.0,52.0,30.34,ENE,61,1.0,2.0,79,0.00,,,0.00,,2013-05-19 14:32:00,
2013-05-19 10:42:00,59.0,52.0,30.34,ENE,61,1.0,2.0,79,0.00,,,0.00,,2013-05-19 14:42:00,
2013-05-19 10:52:00,59.0,52.0,30.34,North,4,2.0,4.0,78,0.00,,,0.00,,2013-05-19 14:52:00,
2013-05-19 11:02:00,59.0,52.0,30.35,ENE,75,1.0,3.0,77,0.00,,,0.00,,2013-05-19 15:02:00,
2013-05-19 11:12:00,59.0,52.0,30.35,ENE,75,1.0,3.0,77,0.00,,,0.00,,2013-05-19 15:12:00,
2013-05-19 11:22:00,60.0,52.0,30.35,NE,41,1.0,3.0,76,0.00,,,0.00,,2013-05-19 15:22:00,
2013-05-19 11:33:00,60.0,53.0,30.35,SE,128,2.0,4.0,77,0.00,,,0.00,,2013-05-19 15:33:00,
2013-05-19 11:43:00,60.0,53.0,30.35,SE,128,2.0,4.0,77,0.00,,,0.00,,2013-05-19 15:43:00,
2013-05-19 11:53:00,60.0,52.0,30.34,NNW,332,1.0,3.0,76,0.00,,,0.00,,2013-05-19 15:53:00,
2013-05-19 12:03:00,59.0,52.0,30.34,North,11,2.0,3.0,77,0.00,,,0.00,,2013-05-19 16:03:00,
2013-05-19 12:12:00,59.0,52.0,30.34,North,11,2.0,3.0,77,0.00,,,0.00,,2013-05-19 16:12:00,
2013-05-19 12:23:00,59.0,52.0,30.34,NNE,12,1.0,7.0,78,0.00,,,0.00,,2013-05-19 16:23:00,
2013-05-19 12:32:00,60.0,53.0,30.34,SSE,152,1.0,5.0,78,0.00,,,0.00,,2013-05-19 16:32:00,
2013-05-19 12:42:00,60.0,53.0,30.34,SSE,152,1.0,5.0,78,0.00,,,0.00,,2013-05-19 16:42:00,
2013-05-19 12:52:00,60.0,52.0,30.33,North,356,1.0,3.0,76,0.00,,,0.00,,2013-05-19 16:52:00,
2013-05-19 13:02:00,60.0,52.0,30.33,West,278,1.0,3.0,75,0.00,,,0.00,,2013-05-19 17:02:00,
2013-05-19 13:12:00,60.0,52.0,30.33,West,278,1.0,3.0,75,0.00,,,0.00,,2013-05-19 17:12:00,
2013-05-19 13:22:00,60.0,52.0,30.32,East,89,2.0,4.0,74,0.00,,,0.00,,2013-05-19 17:22:00,
2013-05-19 13:32:00,59.0,51.0,30.32,SE,129,1.0,4.0,76,0.00,,,0.00,,2013-05-19 17:32:00,
2013-05-19 13:42:00,59.0,51.0,30.32,SE,129,1.0,4.0,76,0.00,,,0.00,,2013-05-19 17:42:00,
2013-05-19 13:52:00,60.0,52.0,30.31,NW,304,2.0,5.0,75,0.00,,,0.00,,2013-05-19 17:52:00,
2013-05-19 14:02:00,60.0,52.0,30.31,NW,315,1.0,3.0,76,0.00,,,0.00,,2013-05-19 18:02:00,
2013-05-19 14:12:00,60.0,52.0,30.31,NW,315,1.0,3.0,76,0.00,,,0.00,,2013-05-19 18:12:00,
2013-05-19 14:22:00,60.0,52.0,30.30,ENE,64,2.0,5.0,74,0.00,,,0.00,,2013-05-19 18:22:00,
2013-05-19 14:32:00,60.0,52.0,30.30,WSW,253,1.0,3.0,74,0.00,,,0.00,,2013-05-19 18:32:00,
2013-05-19 14:43:00,60.0,52.0,30.30,WSW,253,1.0,3.0,74,0.00,,,0.00,,2013-05-19 18:43:00,
2013-05-19 14:53:00,58.0,51.0,30.30,SSW,210,1.0,4.0,77,0.00,,,0.00,,2013-05-19 18:53:00,
2013-05-19 15:01:00,57.0,51.0,30.30,NW,325,1.0,5.0,79,0.00,,,0.00,,2013-05-19 19:01:00,
2013-05-19 15:11:00,57.0,51.0,30.30,NW,325,1.0,5.0,79,0.00,,,0.00,,2013-05-19 19:11:00,
2013-05-19 15:22:00,56.0,50.0,30.29,ESE,109,1.0,4.0,81,0.00,,,0.00,,2013-05-19 19:22:00,
2013-05-19 15:32:00,56.0,51.0,30.29,SE,129,2.0,6.0,82,0.00,,,0.00,,2013-05-19 19:32:00,
2013-05-19 15:42:00,56.0,51.0,30.29,SE,129,2.0,6.0,82,0.00,,,0.00,,2013-05-19 19:42:00,
2013-05-19 15:52:00,56.0,51.0,30.29,NNE,30,1.0,5.0,83,0.00,,,0.00,,2013-05-19 19:52:00,
2013-05-19 16:02:00,56.0,51.0,30.29,NNW,335,1.0,5.0,83,0.00,,,0.00,,2013-05-19 20:02:00,
2013-05-19 16:11:00,56.0,51.0,30.29,NNW,335,1.0,5.0,83,0.00,,,0.00,,2013-05-19 20:11:00,
2013-05-19 16:22:00,56.0,51.0,30.29,NE,39,1.0,4.0,83,0.00,,,0.00,,2013-05-19 20:22:00,
2013-05-19 16:32:00,55.0,50.0,30.29,ENE,62,1.0,4.0,84,0.00,,,0.00,,2013-05-19 20:32:00,
2013-05-19 16:42:00,55.0,50.0,30.29,ENE,62,1.0,4.0,84,0.00,,,0.00,,2013-05-19 20:42:00,
2013-05-19 16:52:00,55.0,51.0,30.28,NNW,347,1.0,2.0,85,0.00,,,0.00,,2013-05-19 20:52:00,
2013-05-19 17:02:00,55.0,51.0,30.28,NW,321,1.0,3.0,85,0.00,,,0.00,,2013-05-19 21:02:00,
2013-05-19 17:11:00,55.0,51.0,30.28,NW,321,1.0,3.0,85,0.00,,,0.00,,2013-05-19 21:11:00,
2013-05-19 17:22:00,55.0,51.0,30.27,NNE,30,1.0,3.0,86,0.00,,,0.00,,2013-05-19 21:22:00,
2013-05-19 17:32:00,55.0,51.0,30.28,NNE,26,1.0,2.0,86,0.00,,,0.00,,2013-05-19 21:32:00,
2013-05-19 17:43:00,55.0,51.0,30.28,NNE,26,1.0,2.0,86,0.00,,,0.00,,2013-05-19 21:43:00,
2013-05-19 17:53:00,54.0,50.0,30.28,NNW,329,1.0,3.0,87,0.00,,,0.00,,2013-05-19 21:53:00,
2013-05-19 18:03:00,54.0,51.0,30.27,NNE,33,0.0,1.0,88,0.00,,,0.00,,2013-05-19 22:03:00,
2013-05-19 18:12:00,54.0,51.0,30.27,NNE,33,0.0,1.0,88,0.00,,,0.00,,2013-05-19 22:12:00,
2013-05-19 18:23:00,53.0,50.0,30.27,NW,315,1.0,2.0,88,0.00,,,0.00,,2013-05-19 22:23:00,
2013-05-19 18:33:00,53.0,50.0,30.27,North,5,0.0,1.0,89,0.00,,,0.00,,2013-05-19 22:33:00,
2013-05-19 18:42:00,53.0,50.0,30.27,North,5,0.0,1.0,89,0.00,,,0.00,,2013-05-19 22:42:00,
2013-05-19 18:53:00,53.0,50.0,30.27,WNW,282,0.0,1.0,89,0.00,,,0.00,,2013-05-19 22:53:00,
2013-05-19 19:02:00,53.0,50.0,30.27,WNW,282,0.0,1.0,90,0.00,,,0.00,,2013-05-19 23:02:00,
2013-05-19 19:12:00,53.0,50.0,30.27,WNW,282,0.0,1.0,90,0.00,,,0.00,,2013-05-19 23:12:00,
2013-05-19 19:22:00,53.0,50.0,30.27,WNW,283,0.0,1.0,90,0.00,,,0.00,,2013-05-19 23:22:00,
2013-05-19 19:32:00,53.0,50.0,30.27,WNW,282,0.0,0.0,91,0.01,,,0.01,,2013-05-19 23:32:00,
2013-05-19 19:42:00,53.0,50.0,30.27,WNW,282,0.0,0.0,91,0.01,,,0.01,,2013-05-19 23:42:00,
2013-05-19 19:52:00,53.0,51.0,30.26,WNW,283,0.0,0.0,92,0.01,,,0.01,,2013-05-19 23:52:00,
2013-05-19 20:02:00,53.0,51.0,30.26,WNW,283,0.0,0.0,92,0.01,,,0.01,,2013-05-20 00:02:00,
2013-05-19 20:11:00,53.0,51.0,30.26,WNW,283,0.0,0.0,92,0.01,,,0.01,,2013-05-20 00:11:00,
2013-05-19 20:22:00,52.0,50.0,30.26,WNW,283,0.0,0.0,93,0.01,,,0.01,,2013-05-20 00:22:00,
2013-05-19 20:32:00,52.0,50.0,30.25,WNW,282,0.0,0.0,93,0.00,,,0.01,,2013-05-20 00:32:00,
2013-05-19 20:42:00,52.0,50.0,30.25,WNW,282,0.0,0.0,93,0.00,,,0.01,,2013-05-20 00:42:00,
2013-05-19 20:52:00,52.0,50.0,30.26,WNW,282,0.0,0.0,94,0.00,,,0.01,,2013-05-20 00:52:00,
2013-05-19 21:01:00,52.0,50.0,30.25,WNW,283,0.0,0.0,94,0.00,,,0.01,,2013-05-20 01:01:00,
2013-05-19 21:11:00,52.0,50.0,30.25,WNW,283,0.0,0.0,94,0.00,,,0.01,,2013-05-20 01:11:00,
2013-05-19 21:22:00,52.0,50.0,30.25,WNW,282,0.0,0.0,94,0.00,,,0.01,,2013-05-20 01:22:00,
2013-05-19 21:32:00,52.0,50.0,30.26,WNW,283,0.0,0.0,94,0.00,,,0.01,,2013-05-20 01:32:00,
2013-05-19 21:42:00,52.0,50.0,30.26,WNW,283,0.0,0.0,94,0.00,,,0.01,,2013-05-20 01:42:00,
2013-05-19 21:52:00,52.0,50.0,30.26,WNW,283,0.0,0.0,94,0.00,,,0.01,,2013-05-20 01:52:00,
2013-05-19 22:02:00,52.0,51.0,30.26,WNW,283,0.0,0.0,95,0.01,,,0.02,,2013-05-20 02:02:00,
2013-05-19 22:12:00,52.0,51.0,30.26,WNW,283,0.0,0.0,95,0.01,,,0.02,,2013-05-20 02:12:00,
2013-05-19 22:21:00,52.0,51.0,30.26,WNW,283,0.0,0.0,95,0.01,,,0.02,,2013-05-20 02:21:00,
2013-05-19 22:32:00,52.0,51.0,30.26,WNW,283,0.0,0.0,95,0.02,,,0.03,,2013-05-20 02:32:00,
2013-05-19 22:42:00,52.0,51.0,30.26,WNW,283,0.0,0.0,95,0.02,,,0.03,,2013-05-20 02:42:00,
2013-05-19 22:52:00,52.0,51.0,30.25,WNW,282,0.0,0.0,95,0.02,,,0.03,,2013-05-20 02:52:00,
2013-05-19 23:02:00,52.0,51.0,30.24,WNW,283,0.0,0.0,95,0.02,,,0.04,,2013-05-20 03:02:00,
2013-05-19 23:11:00,52.0,51.0,30.24,WNW,283,0.0,0.0,95,0.02,,,0.04,,2013-05-20 03:11:00,
2013-05-19 23:21:00,53.0,52.0,30.24,WNW,283,0.0,0.0,95,0.03,,,0.05,,2013-05-20 03:21:00,
2013-05-19 23:33:00,53.0,52.0,30.24,WNW,282,0.0,0.0,95,0.03,,,0.06,,2013-05-20 03:33:00,
2013-05-19 23:43:00,53.0,52.0,30.24,WNW,283,0.0,0.0,95,0.04,,,0.07,,2013-05-20 03:43:00,
2013-05-19 23:52:00,53.0,52.0,30.24,WNW,283,0.0,0.0,95,0.04,,,0.07,,2013-05-20 03:52:00,